Wind_Speed
44 43 43 43 42 42 41 40 39 39 39 40 40 39 36 34 32 32 33 34 35 34 34 37 38 35 33 33 34 36 37 37 36 38 40 40 40 41 42 44 45 45 45 45 44 43 42 41 41 41 41 42 42 43 44 45 44 42 40 38 36 35 35
43 43 43 41 41 41 41 41 41 41 41 41 40 38 36 34 33 32 33 34 34 32 32 33 35 34 33 32 33 34 36 38 39 40 40 40 39 39 41 42 44 45 45 45 45 45 43 43 43 43 43 43 43 44 45 45 44 42 40 38 36 35 35
42 43 42 39 38 39 41 42 43 43 43 42 41 38 37 37 37 36 35 34 33 32 31 30 32 33 34 34 34 35 38 40 40 40 39 38 38 39 41 43 44 44 44 44 46 46 46 45 46 45 44 43 43 45 46 46 44 42 41 38 35 35 34
42 42 42 39 39 40 42 43 43 42 42 42 41 40 41 41 40 38 36 34 32 31 30 29 29 30 32 34 35 36 38 39 39 39 39 38 38 40 42 44 43 42 41 43 46 46 46 46 45 45 44 44 45 47 47 45 43 42 40 37 35 34 34
43 44 44 43 42 41 42 43 44 43 42 42 43 43 43 42 41 39 36 34 32 31 31 31 30 29 30 32 33 35 36 37 39 39 39 39 39 41 43 43 41 39 40 43 45 45 45 45 44 43 44 45 46 46 45 43 42 41 39 37 35 34 34
45 46 47 47 45 42 40 41 42 43 44 45 45 45 43 41 40 38 37 35 33 32 33 33 33 32 32 33 34 35 36 37 38 39 40 40 41 42 42 40 39 39 41 42 44 44 44 44 44 43 43 44 45 43 42 41 41 40 37 36 35 35 35
47 49 50 49 48 46 43 42 41 41 43 44 44 42 40 38 38 37 37 36 35 34 34 34 34 35 35 36 37 37 38 38 38 39 41 42 42 42 40 39 39 41 42 42 43 43 43 43 43 42 41 42 41 40 39 39 40 39 38 37 36 36 36
47 50 51 51 50 49 48 47 45 43 41 39 39 38 38 38 38 37 37 37 37 36 36 35 35 36 37 38 39 39 39 40 41 42 43 44 44 43 41 41 42 43 43 43 43 43 42 42 41 40 40 40 39 39 38 39 39 40 40 39 38 38 38
47 49 51 52 52 52 51 50 49 47 45 42 40 40 40 40 40 39 39 39 38 38 38 38 38 39 40 41 42 42 43 44 46 46 46 46 45 44 44 44 45 45 45 44 44 44 42 41 41 41 40 40 40 39 39 40 40 41 40 40 40 40 41
47 48 50 52 53 53 53 52 50 50 48 47 45 45 44 44 43 43 42 42 41 41 41 41 41 42 43 45 46 47 49 50 49 48 46 45 45 45 45 46 47 47 46 47 47 46 44 43 42 42 42 42 42 41 41 41 41 41 40 40 41 42 43
47 48 48 49 50 51 52 52 51 50 49 48 47 47 46 46 46 46 45 45 44 44 44 44 45 45 46 47 48 49 50 49 47 45 44 44 45 46 47 48 48 48 49 50 49 47 46 45 45 44 44 44 44 43 43 43 42 41 40 40 41 42 43
46 47 48 48 48 49 49 50 50 50 50 49 48 48 48 47 47 47 47 47 47 47 47 47 48 48 48 49 49 48 47 45 45 45 45 46 46 47 48 49 50 51 52 52 50 48 48 48 47 47 47 46 46 45 45 44 42 41 40 40 41 42 44
44 47 48 48 48 48 48 49 50 50 50 50 50 50 50 50 49 49 49 49 49 49 49 49 49 49 49 49 49 48 47 46 47 48 48 48 48 49 50 51 53 54 54 53 51 50 50 51 50 50 49 48 48 47 46 44 43 41 40 40 41 43 44
48 48 48 48 49 49 49 50 50 51 51 51 51 52 52 52 52 51 51 51 50 50 49 49 49 50 50 50 50 49 49 50 50 50 50 50 50 51 52 53 54 55 54 53 53 53 52 52 53 52 50 49 49 49 48 46 44 41 40 40 41 43 45
49 49 49 49 50 50 50 50 50 50 51 51 51 52 52 53 53 52 52 52 52 52 51 51 51 52 52 52 53 53 53 54 54 54 53 52 52 52 53 54 55 55 55 55 56 55 54 53 53 52 51 50 50 50 50 48 45 42 41 41 41 42 44
49 50 50 50 50 50 50 50 50 51 51 52 52 52 53 53 53 53 53 53 53 53 53 53 54 54 55 55 55 56 56 56 56 56 56 55 55 56 57 57 57 57 57 57 57 56 54 53 52 51 51 50 50 51 51 50 47 44 44 45 44 42 42
51 51 52 52 52 52 52 51 51 51 52 53 53 53 54 54 54 55 55 55 56 56 56 56 56 56 56 56 56 56 56 56 57 57 58 59 60 61 61 59 58 58 58 57 55 53 52 52 52 51 51 51 51 52 52 51 49 47 47 50 51 48 46
51 52 53 53 53 53 54 54 54 53 54 55 55 55 55 55 56 56 56 57 57 58 58 58 58 58 58 59 59 59 59 59 59 59 60 61 62 62 60 59 58 59 58 56 53 51 50 51 51 51 52 52 52 52 51 52 52 51 51 53 55 55 53
50 50 51 52 52 53 54 55 56 57 57 57 57 57 57 57 58 58 59 59 60 60 60 61 61 61 62 63 63 62 62 61 61 61 62 61 61 60 59 60 60 60 58 56 54 52 50 51 52 52 52 54 54 53 51 52 54 55 55 56 56 57 57
50 50 50 51 52 53 54 55 56 58 58 58 58 58 58 59 59 60 61 62 62 63 64 64 64 64 64 64 64 63 62 61 61 61 61 60 60 60 61 62 61 59 58 56 55 54 53 52 53 53 53 55 57 56 54 54 56 57 56 56 56 57 58
52 52 52 53 53 54 54 55 55 56 57 58 58 59 59 59 59 60 61 63 64 64 65 65 65 65 64 63 62 62 61 61 61 61 61 61 62 63 63 62 60 59 58 57 57 56 55 54 54 54 54 55 58 59 57 56 56 57 57 56 56 57 58
55 54 55 55 55 55 55 56 56 56 57 57 58 58 59 60 60 61 62 64 65 65 66 66 66 65 64 63 62 63 63 62 62 63 63 63 63 63 62 61 61 60 59 59 58 58 57 56 56 56 56 56 57 59 60 58 57 57 57 58 58 58 58
58 57 57 57 56 57 57 57 58 58 58 59 58 59 60 62 62 63 64 65 65 64 64 63 63 63 62 61 61 62 63 63 62 63 63 62 61 61 61 61 61 61 60 60 60 59 59 59 58 58 57 57 57 58 60 60 59 58 59 59 59 59 58
60 59 59 60 60 60 61 61 61 61 60 59 59 60 61 62 63 64 64 64 64 63 62 62 62 62 61 60 60 61 62 62 62 62 62 62 62 61 61 61 61 61 61 61 61 61 61 61 60 59 58 58 59 60 61 61 61 60 60 60 59 58 57
61 62 62 62 62 62 63 63 63 62 61 60 61 61 60 60 61 63 64 64 65 64 63 63 62 62 60 59 58 60 62 62 63 64 65 65 64 63 62 62 61 61 61 61 61 61 61 61 61 61 61 61 62 63 63 63 62 62 61 59 57 55 54
64 65 64 64 64 64 64 64 65 65 66 66 66 64 62 62 64 65 65 66 65 63 61 60 59 59 59 59 60 62 64 64 64 64 65 65 64 64 64 64 63 63 62 62 62 62 63 64 64 64 64 64 64 64 64 63 62 60 59 56 54 52 51
65 66 67 67 67 67 68 68 69 70 70 70 68 67 66 66 66 66 67 67 66 64 63 61 61 62 64 65 64 63 62 61 61 61 62 63 64 66 67 68 67 66 65 64 64 64 65 65 65 66 66 65 64 64 63 63 61 59 57 54 51 51 50
66 67 67 68 69 69 69 70 70 69 68 68 67 67 67 67 67 67 69 69 69 69 68 67 67 67 68 68 66 62 60 59 59 59 58 58 57 57 59 62 64 65 65 65 65 66 66 65 65 67 67 66 65 66 64 63 62 60 58 54 52 51 51
66 67 67 68 69 69 69 69 68 68 68 68 68 68 69 69 69 70 71 71 72 71 71 70 69 69 70 69 68 66 64 62 61 60 58 55 52 51 53 57 61 64 64 64 65 68 68 67 66 67 67 66 67 68 66 65 65 64 61 58 55 54 53
66 67 68 69 70 70 70 70 70 70 70 70 70 71 71 71 72 72 73 73 72 72 71 71 70 70 70 70 70 69 68 66 65 64 63 62 61 61 62 64 67 69 68 67 68 71 73 72 71 70 69 69 69 68 66 66 67 67 66 64 60 57 55
68 69 70 71 71 71 72 72 72 72 72 72 72 72 73 73 74 75 75 75 74 73 72 72 72 73 73 73 72 72 71 71 69 69 70 71 71 71 71 73 75 76 76 75 76 79 79 78 76 74 73 72 70 67 66 67 67 67 67 66 64 61 58
71 72 73 73 73 74 74 74 74 74 74 74 74 74 75 75 76 77 77 78 77 76 75 75 76 76 77 77 76 75 75 75 74 74 75 77 77 77 77 78 79 80 80 80 82 84 83 81 78 76 74 71 68 67 67 66 66 66 66 65 63 62 60
73 74 75 75 76 76 76 76 75 75 74 74 74 74 74 75 75 75 76 77 77 76 76 76 76 76 77 77 76 75 74 74 74 74 75 76 77 77 76 78 79 80 81 82 83 83 82 80 77 73 70 67 66 66 66 65 65 65 64 63 61 59 59
72 73 73 74 74 74 74 73 73 72 70 70 70 70 70 70 70 70 71 71 71 71 71 70 70 71 72 72 71 70 68 69 69 69 69 70 71 71 73 75 75 74 75 77 79 79 78 75 72 69 66 65 65 65 65 64 64 64 63 61 60 59 58
72 72 72 72 72 72 72 72 72 71 70 68 68 67 68 68 68 67 68 68 67 67 67 66 66 67 67 67 67 66 65 66 67 67 67 67 66 67 69 71 69 68 69 72 73 74 74 72 69 67 65 64 64 65 65 66 66 65 64 62 61 60 59
73 73 74 74 74 74 75 75 75 74 73 72 71 70 70 70 70 69 68 68 67 67 67 66 66 67 67 68 68 68 67 68 68 69 69 69 67 67 68 69 69 68 68 68 70 72 73 73 72 71 68 65 64 65 67 69 69 69 68 66 64 62 61
75 75 75 76 77 77 78 79 79 79 79 78 76 75 74 74 73 71 70 69 69 69 68 68 68 69 69 70 71 71 71 71 71 71 72 72 72 71 70 70 70 70 69 69 70 72 74 75 76 76 72 68 67 68 70 71 72 72 71 69 67 65 64
Wind_Direction
265 266 266 266 265 263 260 255 255 262 270 273 275 276 275 273 271 272 274 276 276 276 275 271 266 258 251 250 250 249 248 251 256 263 268 270 272 274 275 277 278 279 281 283 283 282 280 279 278 277 278 279 281 285 287 287 286 285 288 288 284 281 281
264 264 264 264 262 260 258 256 259 265 269 271 272 272 271 269 269 270 272 273 273 273 272 268 261 252 247 250 252 252 254 258 262 265 267 269 271 273 275 276 278 280 282 282 281 280 278 278 278 278 279 279 279 282 283 283 283 283 286 287 283 281 280
263 261 261 260 260 259 257 258 261 264 266 266 266 267 268 270 271 272 272 271 271 272 271 268 261 252 246 248 251 254 258 262 264 264 266 269 272 274 275 277 279 281 283 284 283 281 277 276 276 277 279 279 279 280 280 280 280 282 284 285 282 280 280
260 257 256 256 258 260 259 260 262 263 263 262 262 264 268 271 272 272 271 268 269 269 269 267 264 257 250 249 252 255 259 262 264 266 267 269 272 275 277 278 280 283 287 289 287 284 280 276 274 275 277 277 277 278 279 279 279 281 284 284 281 280 280
259 254 253 254 257 261 262 261 262 263 262 261 262 266 269 271 271 270 268 266 265 265 266 265 263 260 257 254 255 256 258 260 263 265 268 270 274 277 279 279 280 285 292 294 292 288 282 277 274 274 274 275 276 278 280 280 280 281 284 284 282 281 280
257 254 253 254 256 260 262 261 261 261 261 261 264 267 268 269 268 267 266 265 264 263 262 262 262 261 260 260 260 260 259 260 261 265 269 273 276 279 278 277 279 286 294 297 295 290 283 278 275 274 274 275 277 279 280 281 282 284 285 284 282 281 281
260 256 254 254 255 258 260 261 262 263 263 263 264 265 265 265 266 266 266 267 267 266 263 262 262 262 262 262 263 263 262 262 264 269 273 276 279 280 276 273 277 285 292 297 297 292 285 280 278 276 275 275 276 278 281 283 285 285 285 284 283 281 281
261 258 255 255 255 257 259 261 263 265 265 264 264 265 264 265 266 266 267 268 269 268 266 266 265 265 264 263 262 261 262 264 269 274 277 278 279 278 274 273 277 283 290 296 298 294 288 282 279 277 276 276 277 279 282 284 285 286 286 285 283 281 280
263 258 255 255 255 256 258 260 263 264 264 263 264 266 267 267 267 267 267 268 268 269 269 269 269 269 268 267 265 264 266 270 274 277 278 278 277 276 275 275 278 282 288 294 298 296 289 282 279 278 278 279 280 282 284 285 285 285 285 284 283 281 279
265 260 257 256 256 257 258 260 262 264 264 264 265 266 267 267 268 268 267 267 268 268 269 269 269 270 270 270 269 269 271 273 276 277 278 278 277 276 276 277 279 284 289 294 298 296 291 284 280 279 279 280 282 283 286 286 286 284 283 283 283 282 281
267 264 261 259 258 258 259 259 260 262 263 264 265 266 266 267 267 267 267 268 268 268 268 269 269 269 270 270 270 272 273 274 275 277 277 277 278 278 278 279 281 285 290 294 296 294 291 287 283 282 281 280 281 284 286 287 286 284 283 283 284 283 283
265 264 264 263 263 262 261 261 261 262 263 265 267 268 268 268 267 267 267 268 268 268 269 269 269 270 271 271 273 274 274 275 276 277 277 278 279 279 280 281 283 286 290 293 293 292 290 287 283 282 281 280 281 283 285 287 286 283 283 284 284 284 283
266 265 265 265 265 265 265 266 266 266 267 268 269 270 270 270 270 269 269 269 269 270 270 270 271 271 272 272 273 274 274 276 277 278 278 278 279 280 281 282 283 286 288 289 289 289 288 285 282 280 281 280 280 281 284 286 283 281 281 283 283 283 284
269 268 267 267 266 267 268 269 269 269 270 270 271 272 273 273 273 273 272 271 271 271 271 272 272 272 272 272 272 273 274 276 277 278 277 277 279 280 281 282 283 284 286 286 287 288 286 283 280 279 280 281 280 281 283 284 281 278 279 281 283 284 284
268 268 268 268 267 268 268 268 269 269 269 269 270 271 272 273 274 274 274 274 274 274 273 273 273 272 272 272 273 274 275 277 277 277 277 276 278 281 282 283 283 284 285 286 287 286 284 282 280 279 280 280 279 280 282 282 280 279 279 280 282 283 283
267 266 267 267 268 268 268 269 269 269 270 270 270 270 270 271 271 272 272 273 273 274 274 274 274 274 274 274 275 276 277 278 278 278 277 276 278 282 284 284 284 284 285 286 286 285 283 280 279 279 279 279 279 280 282 282 283 284 283 283 285 285 284
265 264 265 265 266 267 267 268 268 268 269 270 270 271 272 273 273 273 273 273 273 274 274 274 274 275 275 275 276 278 279 279 279 278 278 278 280 282 283 283 283 284 285 285 285 283 281 279 278 278 278 278 278 279 282 285 287 289 288 287 289 290 290
263 263 263 263 264 264 265 265 266 266 268 269 270 271 271 272 273 273 273 273 273 274 274 275 275 275 275 276 276 277 278 279 279 279 278 278 279 281 282 283 283 284 285 284 282 281 279 278 277 277 277 278 278 280 284 286 288 289 289 288 288 289 291
261 261 262 262 262 263 263 264 265 266 267 268 269 270 270 270 270 271 271 271 271 271 272 273 274 275 276 276 277 278 278 279 279 279 279 279 280 281 282 283 284 284 284 282 281 280 278 277 277 278 279 280 281 283 285 285 285 286 286 286 286 286 287
260 260 261 262 262 263 264 264 265 266 266 267 267 268 269 269 270 270 270 270 270 270 271 271 272 273 274 276 277 277 278 278 278 278 279 280 280 281 282 282 282 282 281 280 280 279 279 279 279 279 280 281 281 282 283 282 282 282 282 283 284 284 284
258 259 260 262 263 263 263 264 264 265 266 266 266 267 268 269 270 271 271 271 271 272 272 273 273 273 274 274 275 276 276 276 276 276 277 278 279 279 279 279 279 278 278 278 278 279 279 279 279 279 279 279 279 280 281 280 279 279 280 280 281 282 282
258 258 260 261 262 262 262 262 262 263 264 265 266 267 269 269 269 271 273 273 274 274 275 275 274 274 274 274 274 274 274 274 274 275 275 276 277 277 277 277 276 276 277 277 276 276 277 277 277 277 278 278 278 279 280 279 278 278 278 280 281 282 281
260 259 260 260 259 260 260 260 261 262 263 264 266 268 271 272 272 273 274 275 275 275 275 275 275 274 274 273 274 274 274 274 275 275 276 276 276 276 276 276 276 276 276 276 276 276 276 277 277 277 277 278 278 278 278 279 279 279 280 281 282 282 281
261 260 260 260 260 261 261 260 260 261 262 264 267 270 273 274 274 273 273 273 273 274 275 275 275 276 276 276 276 276 276 276 277 277 277 277 276 276 275 275 275 275 275 275 275 276 277 277 276 277 277 278 278 278 278 279 279 280 281 282 282 282 281
262 261 260 260 261 261 260 259 259 260 261 264 268 271 272 273 273 272 271 272 273 274 275 276 276 277 277 277 277 277 278 278 279 279 279 278 277 276 275 274 273 273 274 274 275 276 276 276 276 277 278 278 278 279 279 279 279 280 281 282 282 282 281
262 262 262 261 261 260 259 258 259 260 262 265 268 269 269 270 271 271 271 272 273 273 274 274 275 275 276 276 277 278 279 280 280 279 278 278 277 277 275 274 274 273 273 273 274 274 275 276 278 279 280 280 280 280 280 280 280 281 282 282 283 282 280
263 264 264 264 263 262 261 261 262 263 264 266 267 267 266 267 269 270 271 272 271 271 271 272 272 273 275 276 276 277 277 277 277 277 277 278 279 279 279 277 276 275 274 274 275 275 275 277 279 280 281 282 281 281 281 281 282 283 284 284 284 283 282
265 265 265 265 265 265 265 265 265 266 267 268 268 268 267 267 267 268 268 269 270 270 271 271 271 272 273 273 274 273 271 271 272 274 277 280 280 281 281 280 278 278 278 279 278 277 277 277 279 280 282 283 283 283 283 284 285 287 287 287 286 285 285
265 266 266 267 267 267 267 268 268 269 269 269 269 269 269 268 268 268 267 268 269 270 271 271 271 271 270 270 270 269 269 268 268 269 272 273 271 269 270 271 273 277 279 279 279 279 279 278 279 281 282 283 283 285 285 286 288 289 290 290 290 289 290
264 265 265 266 266 267 268 268 268 268 268 268 268 269 269 269 268 268 268 268 269 269 270 270 270 269 268 268 268 268 268 267 266 266 267 267 265 263 263 264 268 272 274 275 276 277 278 278 279 280 281 281 282 283 283 285 287 288 290 290 291 291 291
262 263 263 263 264 265 265 265 266 266 266 267 267 268 268 269 269 269 269 269 268 268 269 269 269 268 268 268 267 267 267 267 266 265 265 265 265 264 264 265 267 269 271 272 273 274 275 276 277 279 281 281 281 280 280 282 283 284 285 286 288 289 290
263 263 263 263 263 264 264 264 264 265 265 266 266 267 268 269 270 270 270 270 270 269 269 268 268 268 268 268 268 268 268 268 267 267 265 264 264 265 265 265 266 267 268 270 271 273 274 275 277 279 280 280 279 278 279 279 279 280 280 282 284 286 287
264 264 265 265 265 265 265 266 266 266 266 266 267 267 267 268 268 269 270 271 271 271 271 271 270 270 270 270 270 269 269 269 268 267 266 265 265 265 265 265 265 267 268 269 270 272 273 275 277 278 279 279 278 278 278 278 278 279 279 280 282 283 284
267 267 267 267 268 268 268 267 267 266 266 265 265 265 265 265 265 266 267 268 270 271 271 272 272 271 272 272 272 271 271 270 269 267 266 266 266 266 266 266 267 269 270 271 271 272 273 274 275 275 276 276 276 277 278 278 278 278 278 280 281 282 283
273 273 273 273 273 273 273 272 271 270 268 267 266 265 265 264 264 264 265 266 267 269 270 270 270 271 271 271 271 271 271 270 270 269 268 267 267 267 267 268 269 269 270 271 272 273 274 274 274 273 273 274 275 277 277 277 277 277 278 279 280 281 282
277 277 277 277 278 278 277 277 277 276 274 273 271 270 268 267 266 265 265 265 266 267 268 268 269 269 270 270 270 270 270 269 269 269 269 269 268 267 267 268 269 268 268 269 271 272 274 275 275 275 276 276 275 275 275 276 277 277 278 279 280 281 281
276 277 277 277 278 278 278 279 279 279 278 278 277 275 274 273 271 270 269 268 268 268 268 268 268 268 269 269 269 269 268 268 268 268 269 269 269 268 268 268 268 268 268 269 270 271 272 274 275 276 276 276 275 275 275 275 276 277 278 279 280 281 281
Height
10668 10668 10669 10670 10671 10671 10672 10673 10674 10673 10673 10672 10672 10672 10673 10675 10676 10676 10674 10674 10675 10675 10674 10673 10672 10672 10673 10673 10673 10673 10674 10675 10676 10676 10675 10674 10674 10673 10672 10671 10670 10670 10671 10671 10670 10670 10670 10670 10670 10670 10670 10669 10668 10667 10665 10662 10660 10659 10659 10659 10657 10656 10655
10664 10664 10664 10666 10667 10667 10669 10670 10670 10671 10670 10669 10669 10669 10669 10671 10673 10673 10672 10670 10670 10671 10671 10671 10670 10669 10670 10670 10670 10670 10670 10671 10672 10673 10672 10671 10671 10670 10668 10667 10666 10666 10666 10666 10665 10665 10666 10665 10664 10664 10664 10664 10663 10663 10661 10659 10656 10654 10655 10655 10653 10651 10651
10660 10660 10661 10662 10663 10664 10665 10666 10667 10667 10668 10667 10666 10666 10666 10666 10668 10669 10669 10668 10666 10666 10666 10667 10667 10667 10667 10667 10667 10668 10667 10667 10667 10669 10669 10668 10667 10666 10664 10663 10662 10662 10662 10661 10659 10659 10660 10660 10659 10659 10659 10659 10658 10657 10656 10655 10652 10650 10650 10650 10649 10647 10647
10656 10656 10657 10658 10659 10660 10661 10662 10663 10664 10664 10664 10664 10663 10663 10662 10663 10664 10665 10665 10664 10662 10662 10663 10663 10664 10665 10664 10664 10665 10665 10664 10664 10664 10664 10664 10663 10662 10660 10659 10658 10658 10658 10656 10654 10653 10654 10654 10654 10654 10655 10654 10652 10651 10651 10650 10648 10647 10646 10646 10645 10643 10642
10651 10652 10653 10654 10655 10656 10657 10658 10659 10660 10660 10660 10660 10660 10659 10658 10659 10659 10659 10660 10660 10659 10658 10659 10659 10660 10662 10661 10661 10662 10662 10661 10661 10660 10659 10660 10659 10657 10656 10655 10654 10654 10653 10652 10650 10648 10648 10647 10648 10650 10650 10649 10647 10647 10646 10645 10644 10643 10642 10641 10640 10639 10638
10647 10648 10648 10649 10650 10651 10652 10653 10655 10656 10656 10656 10656 10656 10655 10654 10654 10654 10654 10655 10656 10656 10655 10655 10655 10656 10657 10657 10657 10658 10658 10658 10658 10657 10656 10655 10655 10654 10652 10651 10650 10649 10648 10647 10646 10644 10643 10642 10643 10645 10645 10644 10643 10642 10642 10640 10638 10637 10637 10637 10636 10635 10634
10642 10643 10643 10644 10645 10646 10647 10648 10650 10651 10652 10651 10651 10651 10650 10649 10649 10649 10649 10649 10650 10651 10651 10651 10651 10652 10652 10653 10653 10653 10653 10654 10654 10653 10652 10651 10650 10649 10648 10647 10646 10645 10644 10643 10642 10641 10639 10637 10637 10639 10640 10639 10638 10638 10637 10636 10634 10632 10632 10632 10632 10631 10630
10637 10637 10638 10639 10640 10641 10642 10643 10644 10646 10647 10647 10646 10645 10645 10645 10645 10645 10645 10645 10645 10645 10646 10646 10647 10647 10647 10648 10648 10649 10648 10649 10649 10648 10648 10646 10645 10644 10644 10643 10642 10641 10640 10639 10638 10637 10636 10634 10633 10633 10633 10634 10634 10634 10633 10632 10630 10628 10627 10627 10627 10627 10626
10631 10632 10633 10634 10635 10636 10637 10638 10639 10640 10641 10642 10641 10640 10640 10640 10640 10640 10640 10640 10640 10640 10640 10641 10641 10642 10642 10643 10643 10644 10643 10643 10643 10643 10642 10641 10641 10640 10639 10638 10637 10636 10635 10634 10633 10633 10632 10631 10630 10629 10628 10628 10628 10628 10628 10627 10626 10624 10623 10622 10621 10621 10621
10625 10627 10628 10628 10629 10630 10631 10632 10633 10634 10634 10635 10636 10636 10635 10635 10635 10635 10635 10636 10636 10635 10635 10635 10635 10636 10636 10637 10637 10638 10638 10637 10637 10637 10637 10636 10636 10635 10634 10633 10632 10631 10630 10628 10628 10628 10628 10627 10626 10625 10625 10623 10622 10622 10623 10622 10621 10620 10619 10618 10616 10615 10614
10618 10620 10622 10623 10623 10624 10624 10626 10627 10628 10628 10629 10630 10630 10630 10630 10630 10630 10630 10630 10630 10629 10629 10629 10629 10630 10630 10630 10631 10631 10631 10631 10631 10631 10631 10631 10630 10629 10629 10627 10627 10626 10624 10623 10623 10623 10622 10622 10621 10621 10620 10619 10618 10618 10618 10617 10616 10615 10614 10613 10612 10610 10609
10613 10614 10615 10616 10617 10618 10618 10619 10621 10622 10623 10623 10624 10624 10624 10624 10624 10624 10624 10624 10624 10623 10623 10623 10623 10623 10623 10624 10624 10624 10625 10625 10625 10625 10625 10624 10624 10623 10622 10622 10621 10620 10619 10618 10617 10617 10617 10616 10616 10615 10614 10613 10613 10613 10613 10612 10610 10610 10609 10608 10606 10605 10603
10609 10609 10610 10610 10611 10612 10613 10613 10614 10615 10616 10617 10618 10617 10617 10617 10617 10618 10617 10617 10617 10617 10617 10617 10617 10617 10617 10617 10618 10618 10618 10618 10618 10618 10618 10618 10617 10617 10616 10616 10615 10614 10613 10613 10612 10612 10612 10611 10610 10609 10609 10608 10607 10607 10607 10607 10605 10604 10604 10603 10601 10599 10598
10603 10603 10604 10604 10605 10606 10606 10607 10608 10608 10609 10610 10610 10610 10610 10610 10610 10611 10611 10610 10610 10610 10611 10611 10610 10611 10611 10611 10611 10612 10612 10612 10612 10611 10611 10611 10611 10610 10610 10610 10609 10608 10607 10607 10607 10607 10605 10604 10603 10603 10604 10603 10601 10600 10600 10600 10600 10600 10599 10597 10595 10594 10593
10597 10597 10597 10598 10599 10600 10600 10601 10602 10602 10603 10603 10603 10603 10603 10603 10603 10603 10603 10603 10603 10603 10604 10604 10604 10604 10604 10604 10605 10605 10605 10605 10605 10605 10604 10604 10604 10604 10604 10603 10603 10602 10601 10601 10601 10600 10598 10597 10596 10596 10597 10597 10595 10594 10593 10594 10594 10594 10593 10591 10590 10589 10587
10591 10591 10591 10592 10592 10593 10594 10594 10596 10596 10596 10597 10597 10597 10597 10597 10597 10596 10596 10596 10596 10596 10596 10596 10597 10597 10597 10597 10598 10598 10598 10598 10598 10597 10597 10597 10597 10597 10597 10596 10596 10595 10594 10594 10594 10593 10592 10590 10589 10590 10590 10591 10590 10588 10586 10586 10587 10588 10586 10583 10583 10584 10582
10586 10586 10586 10586 10587 10587 10587 10588 10589 10590 10590 10590 10590 10590 10590 10591 10590 10590 10590 10590 10589 10590 10590 10590 10590 10590 10590 10590 10591 10591 10591 10591 10591 10590 10590 10590 10590 10590 10590 10589 10589 10588 10587 10587 10587 10586 10585 10584 10583 10583 10583 10583 10583 10582 10580 10579 10579 10580 10579 10575 10573 10575 10575
10582 10581 10581 10581 10581 10581 10581 10582 10582 10583 10583 10584 10584 10584 10584 10584 10584 10584 10583 10583 10583 10583 10583 10583 10583 10583 10583 10584 10584 10585 10584 10585 10584 10583 10583 10583 10583 10583 10582 10582 10582 10580 10579 10579 10579 10580 10580 10577 10576 10577 10576 10575 10575 10576 10575 10572 10570 10570 10570 10568 10566 10566 10566
10576 10576 10575 10575 10575 10575 10575 10576 10576 10576 10577 10577 10578 10578 10578 10578 10578 10577 10577 10577 10577 10577 10576 10576 10576 10576 10576 10576 10577 10578 10578 10578 10578 10576 10576 10576 10576 10575 10574 10574 10573 10572 10571 10571 10571 10572 10573 10571 10569 10570 10569 10566 10565 10567 10569 10566 10564 10562 10562 10561 10560 10559 10559
10570 10570 10570 10569 10569 10569 10570 10570 10570 10570 10570 10571 10571 10571 10571 10571 10571 10571 10570 10570 10570 10570 10570 10569 10570 10570 10569 10569 10570 10570 10571 10571 10570 10569 10568 10568 10568 10568 10566 10565 10565 10565 10564 10563 10563 10563 10564 10564 10562 10561 10561 10559 10555 10557 10561 10561 10558 10557 10556 10555 10553 10552 10551
10564 10564 10564 10564 10563 10564 10564 10564 10564 10564 10564 10565 10565 10565 10565 10565 10565 10564 10563 10563 10563 10563 10563 10563 10562 10563 10563 10563 10563 10563 10563 10563 10563 10562 10562 10561 10561 10560 10559 10558 10557 10557 10556 10556 10555 10555 10555 10556 10555 10554 10554 10554 10550 10548 10551 10554 10553 10551 10550 10549 10548 10546 10544
10557 10558 10558 10558 10557 10557 10557 10557 10558 10559 10559 10559 10559 10559 10558 10558 10558 10558 10557 10556 10556 10556 10556 10555 10555 10556 10556 10557 10556 10556 10555 10556 10556 10555 10555 10555 10554 10553 10552 10551 10550 10549 10549 10549 10548 10547 10547 10547 10548 10548 10547 10548 10546 10542 10541 10544 10545 10544 10543 10542 10541 10540 10538
10551 10552 10552 10551 10551 10550 10551 10551 10552 10552 10553 10553 10553 10553 10552 10551 10552 10552 10551 10550 10549 10549 10548 10547 10547 10547 10548 10549 10549 10547 10546 10547 10548 10547 10547 10547 10547 10546 10544 10543 10542 10542 10541 10541 10540 10539 10539 10539 10539 10540 10539 10539 10539 10536 10533 10533 10535 10536 10535 10534 10533 10532 10530
10543 10544 10544 10543 10544 10545 10545 10545 10545 10545 10546 10546 10547 10546 10546 10545 10545 10544 10544 10543 10542 10542 10541 10540 10539 10539 10540 10542 10541 10539 10537 10537 10538 10538 10538 10538 10538 10538 10537 10535 10534 10534 10533 10532 10531 10531 10531 10530 10529 10530 10531 10530 10529 10528 10527 10525 10525 10526 10526 10525 10525 10524 10522
10534 10535 10535 10536 10538 10538 10538 10538 10538 10539 10539 10540 10540 10540 10540 10539 10537 10536 10536 10535 10535 10536 10535 10533 10531 10531 10533 10534 10533 10530 10527 10528 10529 10528 10528 10528 10529 10529 10528 10526 10526 10526 10525 10524 10523 10523 10522 10520 10520 10521 10522 10522 10520 10519 10519 10519 10518 10517 10517 10517 10517 10516 10515
10527 10527 10528 10529 10530 10530 10531 10531 10531 10531 10532 10533 10533 10534 10533 10532 10529 10528 10527 10527 10527 10528 10527 10526 10525 10524 10524 10525 10526 10523 10521 10520 10520 10519 10518 10518 10519 10519 10518 10517 10517 10518 10517 10517 10516 10516 10513 10512 10512 10512 10513 10513 10512 10511 10510 10510 10510 10509 10509 10509 10509 10508 10507
10520 10520 10521 10522 10522 10522 10523 10523 10523 10523 10524 10525 10526 10525 10525 10524 10521 10520 10519 10518 10518 10519 10520 10520 10519 10518 10516 10515 10517 10517 10516 10513 10512 10511 10510 10510 10509 10508 10507 10506 10506 10507 10508 10509 10510 10509 10506 10505 10505 10504 10504 10504 10504 10503 10502 10501 10501 10501 10500 10500 10500 10500 10499
10512 10512 10512 10512 10513 10513 10513 10513 10514 10515 10516 10516 10515 10514 10514 10514 10512 10511 10509 10509 10509 10510 10511 10512 10512 10510 10508 10507 10508 10509 10509 10507 10506 10505 10504 10504 10503 10501 10498 10494 10493 10494 10496 10498 10499 10498 10497 10498 10498 10496 10495 10495 10494 10493 10493 10492 10491 10491 10490 10491 10492 10491 10490
10503 10502 10502 10502 10502 10503 10503 10504 10504 10505 10505 10505 10504 10503 10502 10502 10501 10500 10500 10500 10501 10502 10502 10503 10503 10502 10499 10498 10498 10500 10500 10500 10499 10499 10499 10499 10498 10495 10492 10487 10484 10485 10486 10487 10486 10485 10485 10487 10488 10487 10486 10485 10483 10482 10482 10481 10480 10480 10480 10480 10481 10481 10481
10494 10494 10494 10494 10493 10493 10494 10495 10495 10495 10495 10495 10494 10493 10492 10492 10492 10491 10490 10491 10492 10493 10494 10493 10493 10491 10490 10489 10489 10489 10490 10491 10492 10491 10491 10491 10489 10487 10484 10481 10479 10478 10478 10478 10476 10473 10473 10475 10477 10478 10478 10477 10476 10475 10474 10473 10472 10471 10471 10471 10471 10472 10472
10485 10485 10486 10486 10485 10486 10486 10486 10486 10486 10486 10486 10485 10484 10484 10483 10482 10481 10481 10481 10482 10484 10484 10483 10481 10480 10479 10479 10480 10480 10480 10480 10481 10482 10481 10480 10480 10479 10476 10474 10472 10470 10470 10470 10466 10463 10464 10466 10467 10469 10469 10469 10470 10469 10468 10467 10466 10465 10464 10463 10463 10463 10463
10475 10475 10476 10476 10476 10477 10477 10476 10476 10477 10478 10477 10477 10476 10476 10475 10473 10471 10470 10470 10470 10472 10473 10472 10471 10469 10468 10468 10469 10470 10470 10470 10470 10470 10469 10469 10469 10470 10469 10466 10463 10461 10461 10461 10458 10454 10456 10458 10459 10460 10460 10461 10461 10462 10461 10460 10459 10458 10457 10456 10456 10456 10456
10466 10465 10465 10465 10465 10466 10466 10466 10466 10467 10468 10468 10467 10467 10466 10465 10464 10463 10460 10458 10459 10460 10460 10460 10460 10458 10457 10456 10457 10459 10459 10459 10459 10458 10457 10457 10458 10460 10460 10457 10454 10453 10453 10452 10449 10447 10449 10451 10451 10452 10453 10453 10452 10452 10452 10451 10451 10450 10449 10449 10449 10449 10449
10455 10454 10454 10454 10454 10454 10454 10454 10455 10455 10455 10455 10455 10455 10455 10454 10454 10454 10452 10450 10450 10450 10449 10450 10449 10448 10446 10446 10446 10448 10448 10447 10447 10447 10447 10446 10447 10449 10448 10445 10445 10446 10445 10442 10439 10439 10440 10443 10444 10444 10445 10445 10444 10443 10443 10443 10442 10441 10441 10441 10442 10441 10441
10442 10441 10441 10441 10441 10441 10440 10440 10440 10440 10440 10441 10442 10442 10442 10442 10443 10444 10443 10443 10443 10442 10441 10440 10440 10438 10438 10436 10436 10437 10439 10437 10435 10435 10435 10435 10437 10438 10436 10435 10437 10438 10436 10433 10430 10429 10429 10432 10435 10436 10437 10438 10437 10435 10434 10433 10433 10432 10433 10433 10433 10433 10434
10430 10429 10429 10428 10428 10428 10427 10425 10425 10425 10426 10427 10428 10428 10429 10429 10430 10432 10433 10433 10434 10434 10433 10432 10430 10429 10428 10427 10426 10427 10428 10427 10425 10425 10425 10425 10426 10427 10426 10426 10427 10427 10427 10426 10424 10420 10419 10420 10422 10424 10427 10430 10430 10428 10426 10424 10422 10422 10423 10424 10425 10425 10425
10419 10419 10419 10418 10418 10417 10415 10414 10413 10412 10412 10412 10413 10414 10414 10414 10415 10418 10420 10422 10423 10424 10424 10423 10420 10419 10419 10417 10415 10415 10416 10416 10416 10416 10416 10415 10415 10416 10416 10417 10417 10417 10418 10418 10416 10413 10411 10411 10410 10412 10416 10419 10421 10419 10417 10415 10413 10412 10413 10414 10415 10416 10416